RH
34 34 40 42 45 47 52 61 64 69 75 64 75 74 70 68 77 81 79 79 81 70 67 68 43 37 54 52 56 55 54 54 50 45 49 57 58 52 66 65 69 77 68
50 36 37 39 40 47 46 50 55 56 57 66 63 72 67 62 76 82 76 74 85 92 82 66 52 36 25 45 58 56 57 55 57 52 51 62 64 73 53 74 71 63 64
69 67 61 44 40 40 42 40 44 48 50 55 64 68 62 62 64 67 71 50 72 85 74 72 53 50 34 34 36 56 62 63 64 67 58 58 64 71 82 79 80 82 69
56 65 70 66 38 38 40 37 37 40 40 42 57 59 60 56 62 57 47 51 47 66 75 67 67 68 42 26 35 40 51 60 66 66 64 57 58 63 73 75 74 84 82
51 57 65 69 70 64 54 38 29 33 34 35 41 49 53 55 70 62 56 54 41 46 72 70 73 81 68 39 49 54 62 56 60 60 67 66 59 58 67 70 71 70 71
47 52 59 68 76 78 73 53 37 31 30 29 32 38 44 60 71 74 69 65 62 55 64 78 59 78 80 62 50 64 67 70 71 75 64 62 62 63 67 70 69 73 74
46 52 55 62 72 78 79 77 49 35 39 32 32 38 41 42 45 56 68 74 69 62 62 70 75 80 78 78 58 58 71 74 76 75 76 70 69 72 73 76 79 79 87
48 52 56 60 68 77 79 81 79 73 62 54 47 45 41 38 41 43 48 62 69 68 63 67 81 68 77 75 64 58 62 73 75 77 80 78 71 73 79 78 74 88 88
47 52 53 66 70 77 55 56 70 82 78 65 65 63 52 40 41 40 45 50 60 64 63 81 87 81 71 69 75 71 62 68 75 78 81 86 81 82 80 84 91 93 93
28 47 57 66 74 74 58 58 70 77 61 77 77 66 57 46 38 35 38 51 60 63 60 70 81 81 79 66 74 79 76 64 77 78 76 86 87 84 73 67 86 93 93
50 56 63 64 71 74 67 54 56 73 87 82 78 72 57 41 37 32 33 38 46 55 68 78 69 69 72 75 68 70 66 72 77 86 93 99 92 88 77 67 73 84 83
43 54 63 71 74 78 74 75 84 88 89 81 85 73 70 52 43 47 39 34 35 51 66 74 77 83 83 84 90 93 88 82 98 95 98 100 100 97 93 97 77 76 85
48 55 64 73 76 70 78 86 90 91 90 89 89 88 84 77 90 83 67 71 66 51 50 70 72 73 75 84 90 100 100 96 95 99 100 98 96 90 92 92 94 77 67
59 62 67 75 79 83 78 86 87 81 84 86 77 83 76 83 81 82 89 95 97 97 93 75 70 72 73 79 96 98 99 99 92 90 97 91 92 92 89 89 90 74 54
74 75 76 74 77 82 84 71 75 77 72 71 75 71 69 70 67 73 76 86 88 97 100 100 93 83 82 89 97 80 100 96 98 82 76 75 94 89 83 79 83 75 73
78 74 66 62 66 78 73 85 76 73 74 75 71 72 73 71 68 70 72 75 85 100 99 99 99 100 96 92 88 87 99 74 81 84 78 85 95 87 80 79 73 66 64
76 64 60 56 50 49 56 61 61 62 68 66 70 76 79 80 79 81 78 81 83 91 100 100 100 100 100 98 100 89 72 67 80 83 82 86 87 82 79 74 71 72 67
51 46 63 65 63 64 65 68 71 71 69 78 86 88 86 80 89 94 93 95 100 100 99 97 98 100 100 100 100 92 91 91 92 89 88 91 90 79 76 70 69 67 64
71 71 68 75 74 73 62 57 63 73 80 84 86 88 91 89 84 85 91 100 98 97 98 99 100 100 100 100 100 98 93 90 100 90 89 89 82 75 70 68 65 61 55
69 71 74 70 69 70 74 82 86 93 96 97 94 80 71 73 69 62 75 100 100 100 99 100 100 99 98 87 99 91 99 95 96 94 87 80 74 70 67 65 58 51 52
67 71 68 70 74 76 76 74 74 75 87 84 92 71 68 63 96 95 76 96 100 80 92 100 99 100 87 85 94 98 95 96 92 86 80 75 72 68 60 52 49 46 42
68 66 64 65 67 72 72 76 75 83 89 95 86 94 83 79 93 98 94 86 85 93 86 88 96 97 98 98 98 96 92 87 84 81 75 72 67 61 54 49 43 40 37
72 78 84 89 86 81 82 89 96 98 98 93 95 98 93 94 95 94 89 89 88 93 98 91 94 98 97 98 98 88 80 76 78 76 68 62 57 55 52 45 41 36 34
82 82 79 80 81 82 83 90 92 99 94 99 99 98 97 98 98 91 87 93 98 97 95 99 92 91 99 97 89 82 77 75 73 64 59 57 53 51 49 44 40 36 34
72 77 90 90 98 98 100 99 98 99 99 99 98 99 94 99 96 90 91 95 98 92 89 96 98 87 91 89 84 71 63 58 57 59 60 56 53 50 50 45 42 37 35
69 74 80 82 86 96 98 99 100 98 99 100 100 93 94 91 87 89 81 77 81 80 81 81 81 84 82 75 65 56 52 54 57 59 61 56 57 55 52 50 42 38 35
Wind_Speed
48 50 48 48 46 44 45 42 38 33 32 30 26 27 26 27 27 27 25 21 24 22 20 20 21 19 15 13 13 12 11 10 11 10 9 10 16 16 11 15 12 12 11
49 51 51 49 48 48 48 47 45 43 40 38 34 34 29 27 29 30 29 25 26 23 23 24 25 22 23 20 16 16 14 14 14 14 12 12 15 14 14 17 14 12 12
44 46 51 53 53 53 51 47 47 45 44 42 40 40 38 33 33 34 33 33 30 30 28 27 27 27 26 22 24 18 17 19 16 15 14 13 14 13 13 12 14 13 14
41 43 46 51 56 55 52 51 46 45 44 44 43 42 42 40 38 38 39 38 37 35 34 32 30 30 28 26 25 24 22 18 16 15 14 14 15 15 14 12 13 13 12
42 44 48 49 49 49 49 51 48 48 47 44 44 45 45 44 41 44 42 43 41 41 37 37 33 32 30 28 26 26 22 23 17 16 15 16 16 17 16 14 11 12 15
41 46 44 45 45 47 47 49 49 47 48 48 49 48 48 46 43 43 43 43 43 42 41 39 39 33 33 33 30 26 26 24 22 17 18 20 19 17 16 16 15 14 15
42 41 44 44 45 46 46 47 53 54 51 52 51 50 50 51 50 47 45 44 43 45 44 43 41 34 36 36 34 31 32 31 27 27 25 23 19 16 18 18 19 18 16
40 44 45 48 46 44 45 47 48 48 51 52 52 52 52 54 52 51 50 48 49 47 45 45 43 42 39 39 36 36 36 37 32 30 32 26 24 26 23 20 20 21 19
39 45 48 44 44 44 50 49 48 46 47 50 50 51 54 56 55 53 52 53 54 53 50 44 43 43 44 45 40 37 35 34 34 31 34 30 28 25 23 15 14 17 13
34 41 42 42 43 47 47 46 45 44 45 41 44 48 52 54 56 57 55 55 56 57 56 51 47 47 45 46 46 42 40 37 31 32 34 31 34 28 25 24 17 16 15
29 32 38 41 44 45 43 41 41 41 38 40 42 44 46 50 54 58 59 59 61 59 56 52 56 57 52 51 50 47 44 36 32 31 33 30 29 28 26 26 26 22 16
29 29 33 36 35 34 40 39 38 36 36 40 40 42 45 49 52 57 61 63 63 61 52 50 46 49 49 48 47 44 40 33 32 32 30 23 22 23 21 21 21 23 16
26 29 29 30 33 32 31 33 31 34 34 35 38 41 46 46 47 51 56 58 60 62 59 43 40 43 44 44 43 43 39 35 35 32 28 24 27 20 21 20 20 19 24
22 25 24 25 27 25 27 25 28 28 32 36 35 39 39 36 38 38 42 46 52 57 59 53 43 44 46 44 41 37 39 37 36 30 30 22 31 26 26 25 21 22 21
16 16 17 17 20 21 23 23 25 27 28 28 31 32 32 35 37 36 37 39 44 51 54 50 46 47 45 46 41 39 43 37 33 28 37 28 22 27 26 25 21 16 15
11 11 12 13 13 14 16 17 25 27 25 31 32 32 30 30 35 32 36 40 42 37 41 56 57 50 52 54 49 47 42 31 31 39 37 26 31 29 24 23 21 20 18
7 12 8 11 10 11 12 13 15 19 23 24 34 35 40 45 46 39 32 38 43 42 41 50 58 58 58 55 52 47 44 46 46 43 34 29 26 27 25 24 22 19 18
5 6 4 4 5 5 7 9 11 13 15 16 23 29 35 41 48 48 45 46 43 43 46 50 56 59 56 54 50 47 42 40 43 40 33 30 30 26 27 24 24 20 18
7 5 4 3 3 2 4 7 9 13 17 19 22 25 27 29 32 35 40 40 52 52 53 49 56 55 52 50 49 44 37 33 38 37 33 29 29 29 25 23 22 21 19
9 11 8 5 5 4 4 3 4 5 7 9 11 17 19 19 22 25 26 31 34 41 54 56 57 57 54 41 41 32 36 34 36 36 31 30 29 27 23 23 20 19 19
5 3 10 7 7 6 5 6 6 6 6 8 10 10 13 12 11 14 15 9 14 24 32 32 52 50 41 35 38 39 36 39 37 32 31 30 28 24 23 20 18 19 17
10 7 4 5 6 7 9 9 7 7 6 8 9 14 12 7 3 3 2 3 5 8 3 4 4 23 31 38 39 36 33 30 29 31 31 29 26 25 20 19 19 18 18
12 10 7 5 5 7 7 7 7 6 6 8 9 6 9 8 9 13 12 12 10 8 9 16 19 29 28 30 33 32 31 30 32 32 29 26 22 21 19 19 19 19 19
10 16 13 11 11 11 12 12 14 13 12 11 9 10 13 13 10 6 7 11 9 6 12 14 18 25 24 26 28 30 32 30 31 28 24 20 19 20 17 17 18 19 19
15 16 11 10 14 12 12 12 11 14 12 7 5 6 9 7 9 9 8 4 6 8 14 16 13 12 21 25 25 24 25 26 22 20 20 18 18 17 17 17 18 19 19
17 16 13 14 15 14 15 16 15 14 11 10 7 5 4 6 6 10 6 4 6 9 10 11 15 16 18 18 20 22 25 28 26 22 17 15 16 15 15 17 19 19 18
Wind_Direction
217 219 220 222 225 226 225 228 223 222 219 217 224 230 226 220 220 225 218 220 241 233 224 224 244 223 219 234 233 231 234 237 243 250 250 248 249 250 241 255 235 250 265
219 220 222 224 227 229 231 231 234 234 233 231 227 233 237 229 223 226 228 219 228 231 231 230 242 241 233 220 226 233 232 234 238 244 238 245 261 261 247 242 246 248 262
215 217 219 226 228 231 233 234 233 236 237 237 238 234 239 237 230 231 232 231 223 233 237 238 242 242 242 235 232 230 239 231 239 242 243 249 250 263 255 263 253 265 261
217 217 219 222 228 230 230 235 235 235 235 237 235 238 240 239 237 237 239 236 235 232 238 240 242 243 243 242 232 237 223 227 239 239 251 251 250 251 249 256 268 261 257
215 217 219 224 225 225 228 232 235 234 235 236 239 238 240 240 235 238 238 239 239 236 234 241 241 242 249 245 240 237 238 233 232 242 250 252 250 250 245 255 261 261 266
216 217 219 221 223 223 223 228 232 233 234 233 235 239 239 238 235 234 239 238 241 241 236 235 240 242 244 248 246 239 245 242 244 236 243 248 251 249 253 257 266 269 276
218 218 217 220 221 224 224 224 231 234 233 235 236 238 240 241 240 238 238 239 240 241 240 237 236 233 243 243 244 241 242 244 245 254 247 236 242 250 249 253 255 262 264
219 219 219 218 219 219 224 226 229 230 234 236 239 240 241 243 243 242 241 240 241 242 243 241 235 236 236 242 243 241 239 240 243 247 250 248 247 239 245 258 260 261 266
222 223 221 219 216 218 229 231 229 227 230 235 236 238 241 243 244 243 241 240 241 243 244 239 237 236 235 242 242 244 246 241 242 243 248 242 245 242 247 238 243 251 263
239 224 223 217 218 220 229 229 228 229 234 232 235 239 242 243 242 241 240 239 238 241 243 240 238 237 239 239 242 242 239 244 237 239 247 232 238 239 240 241 238 246 249
228 223 221 220 219 222 226 234 235 231 225 233 232 238 243 245 244 241 239 238 237 236 235 235 238 241 238 239 241 238 244 246 243 240 246 236 232 236 236 236 240 234 244
220 224 220 221 217 223 224 226 226 227 229 228 236 237 241 246 247 245 243 240 240 235 232 236 236 235 234 235 235 237 239 236 229 238 241 239 223 220 223 232 238 227 225
219 220 217 218 220 212 227 226 225 228 226 236 230 237 240 240 245 247 249 245 243 241 239 228 236 238 243 235 232 232 230 225 225 230 229 213 221 211 217 218 216 232 220
215 213 215 215 219 222 219 227 225 226 231 233 235 238 242 246 242 245 248 253 247 241 240 231 224 235 228 231 218 226 224 228 224 227 218 226 218 204 204 206 201 228 223
201 202 205 210 219 222 223 222 230 233 234 240 244 246 251 250 248 248 246 250 256 247 236 230 230 227 222 214 210 214 212 205 215 216 227 226 210 204 199 205 202 211 213
197 199 203 203 213 218 225 236 233 233 238 242 247 253 252 254 253 256 257 250 253 254 228 229 231 224 220 215 211 200 199 216 215 226 229 220 202 204 196 205 210 210 221
171 179 170 196 208 219 229 239 250 259 258 256 253 255 257 259 257 259 265 263 262 254 248 237 232 226 225 222 205 204 205 209 234 223 211 200 200 204 202 200 209 218 223
115 146 139 167 196 214 232 245 254 261 263 253 254 259 263 264 264 264 264 266 263 246 241 238 236 228 217 214 208 202 207 213 208 204 201 194 195 201 202 202 214 219 224
96 95 78 63 74 125 207 236 254 261 264 269 277 281 284 287 285 276 267 266 257 253 244 239 221 212 202 198 196 202 206 206 202 201 194 191 196 197 200 207 219 223 222
61 91 100 89 62 51 39 25 9 353 342 335 325 319 316 309 302 300 286 265 248 255 245 223 203 196 193 194 201 200 200 188 199 195 186 191 194 196 201 211 213 219 221
94 90 75 52 56 52 28 17 11 4 350 344 340 338 335 334 329 320 314 265 330 296 244 260 177 182 188 191 190 187 185 180 184 183 185 189 193 195 203 210 214 218 221
71 82 69 55 47 57 50 30 22 360 325 330 317 313 321 339 334 312 329 242 340 334 7 102 150 183 180 182 178 180 173 179 184 182 184 186 191 195 201 205 213 216 217
72 72 74 77 85 72 57 50 41 29 27 23 28 352 332 330 301 283 296 309 296 258 201 190 183 174 172 173 175 176 171 180 185 180 183 185 191 198 199 205 209 212 214
77 86 68 76 73 70 61 49 38 42 50 51 51 29 8 356 358 346 309 282 255 212 197 173 170 166 168 176 174 176 181 181 182 180 182 187 195 201 199 203 211 213 212
69 68 48 58 59 56 57 57 57 55 50 53 29 357 44 6 31 35 40 47 82 169 171 168 155 178 179 185 182 171 178 178 173 181 182 192 196 202 202 205 211 212 212
62 64 65 63 59 55 57 58 56 55 55 48 56 83 65 91 97 65 71 89 122 127 140 161 168 180 185 176 171 186 188 184 181 182 178 192 196 202 209 213 213 209 211